Météo par heure à Alkeevo

Ce jour, 15 Mai, Samedi

Heure Température Précipitation Vent Pression Humidité
00:00 +19°C° 0 mm 3 m/s 750 mmHg 56%
01:00 +19°C° 0 mm 3 m/s 750 mmHg 57%
02:00 +18°C° 0 mm 3 m/s 750 mmHg 56%
03:00 +18°C° 0 mm 3 m/s 750 mmHg 55%
04:00 +17°C° 0 mm 3 m/s 750 mmHg 51%
05:00 +18°C° 0 mm 3 m/s 750 mmHg 50%
06:00 +19°C° 0 mm 4 m/s 750 mmHg 50%
07:00 +20°C° 0 mm 4 m/s 750 mmHg 49%
08:00 +22°C° 0 mm 5 m/s 750 mmHg 44%
09:00 +25°C° 0 mm 5 m/s 750 mmHg 39%
10:00 +27°C° 0 mm 6 m/s 750 mmHg 34%
11:00 +28°C° 0 mm 6 m/s 750 mmHg 32%
12:00 +29°C° 0 mm 6 m/s 750 mmHg 30%
13:00 +30°C° 0 mm 6 m/s 750 mmHg 29%
14:00 +30°C° 0 mm 6 m/s 750 mmHg 30%
15:00 +30°C° 0 mm 5 m/s 750 mmHg 31%
16:00 +30°C° 0 mm 5 m/s 750 mmHg 32%
17:00 +29°C° 0 mm 4 m/s 750 mmHg 38%
18:00 +27°C° 0 mm 4 m/s 750 mmHg 43%
19:00 +26°C° 0 mm 3 m/s 749 mmHg 48%
20:00 +25°C° 0 mm 3 m/s 749 mmHg 48%
21:00 +22°C° 0 mm 3 m/s 749 mmHg 49%
22:00 +21°C° 0 mm 3 m/s 749 mmHg 49%
23:00 +20°C° 0 mm 3 m/s 749 mmHg 50%

Demain, 16 Mai, Dimanche

Heure Température Précipitation Vent Pression Humidité
00:00 +20°C° 0 mm 3 m/s 749 mmHg 51%
01:00 +19°C° 0 mm 3 m/s 749 mmHg 52%
02:00 +19°C° 0 mm 3 m/s 749 mmHg 52%
03:00 +19°C° 0 mm 3 m/s 749 mmHg 52%
04:00 +18°C° 0 mm 3 m/s 749 mmHg 52%
05:00 +19°C° 0 mm 3 m/s 749 mmHg 53%
06:00 +20°C° 0 mm 3 m/s 749 mmHg 54%
07:00 +21°C° 0 mm 3 m/s 749 mmHg 55%
08:00 +24°C° 0 mm 3 m/s 749 mmHg 49%
09:00 +26°C° 0 mm 4 m/s 749 mmHg 43%
10:00 +28°C° 0 mm 5 m/s 749 mmHg 37%
11:00 +29°C° 0 mm 5 m/s 749 mmHg 34%
12:00 +30°C° 0 mm 6 m/s 749 mmHg 31%
13:00 +32°C° 0 mm 6 m/s 749 mmHg 28%
14:00 +32°C° 0 mm 6 m/s 749 mmHg 29%
15:00 +32°C° 0 mm 5 m/s 749 mmHg 30%
16:00 +32°C° 0 mm 5 m/s 748 mmHg 31%
17:00 +30°C° 0 mm 4 m/s 748 mmHg 36%
18:00 +29°C° 0 mm 3 m/s 748 mmHg 41%
19:00 +27°C° 0 mm 3 m/s 747 mmHg 46%
20:00 +26°C° 0 mm 3 m/s 748 mmHg 47%
21:00 +24°C° 0 mm 3 m/s 748 mmHg 48%
22:00 +22°C° 0 mm 3 m/s 748 mmHg 49%
23:00 +21°C° 0 mm 3 m/s 748 mmHg 51%

Après-demain, 17 Mai, Lundi

Heure Température Précipitation Vent Pression Humidité
00:00 +21°C° 0 mm 3 m/s 748 mmHg 52%
01:00 +20°C° 0 mm 3 m/s 748 mmHg 54%
02:00 +20°C° 0 mm 3 m/s 748 mmHg 54%
03:00 +19°C° 0 mm 3 m/s 748 mmHg 54%
04:00 +19°C° 0 mm 3 m/s 748 mmHg 54%
05:00 +20°C° 0 mm 3 m/s 748 mmHg 55%
06:00 +20°C° 0 mm 3 m/s 748 mmHg 57%
07:00 +21°C° 0 mm 3 m/s 749 mmHg 59%
08:00 +24°C° 0 mm 3 m/s 749 mmHg 54%
09:00 +25°C° 0 mm 3 m/s 749 mmHg 49%
10:00 +27°C° 0 mm 4 m/s 749 mmHg 44%
11:00 +28°C° 0 mm 4 m/s 749 mmHg 40%
12:00 +29°C° 0 mm 4 m/s 749 mmHg 36%
13:00 +32°C° 0 mm 5 m/s 749 mmHg 33%
14:00 +32°C° 0 mm 5 m/s 749 mmHg 32%
15:00 +32°C° 0 mm 5 m/s 749 mmHg 31%
16:00 +32°C° 0 mm 5 m/s 749 mmHg 30%
17:00 +30°C° 0 mm 4 m/s 748 mmHg 36%
18:00 +29°C° 0 mm 3 m/s 748 mmHg 42%
19:00 +28°C° 0 mm 2 m/s 748 mmHg 48%
20:00 +26°C° 0 mm 2 m/s 748 mmHg 50%
21:00 +24°C° 0 mm 2 m/s 748 mmHg 52%
22:00 +22°C° 0 mm 3 m/s 749 mmHg 54%
23:00 +21°C° 0 mm 2 m/s 748 mmHg 55%

18 Mai, Mardi

Heure Température Précipitation Vent Pression Humidité
00:00 +20°C° 0 mm 2 m/s 748 mmHg 56%
01:00 +21°C° 0 mm 1 m/s 748 mmHg 57%
02:00 +21°C° 0 mm 1 m/s 748 mmHg 56%
03:00 +20°C° 0 mm 1 m/s 748 mmHg 55%
04:00 +18°C° 0 mm 0 m/s 748 mmHg 54%
05:00 +21°C° 0 mm 1 m/s 748 mmHg 54%
06:00 +22°C° 0 mm 1 m/s 748 mmHg 54%
07:00 +23°C° 0 mm 1 m/s 749 mmHg 53%
08:00 +25°C° 0 mm 1 m/s 748 mmHg 48%
09:00 +27°C° 0 mm 1 m/s 748 mmHg 43%
10:00 +28°C° 0 mm 1 m/s 748 mmHg 39%
11:00 +29°C° 0 mm 1 m/s 748 mmHg 36%
12:00 +30°C° 0 mm 1 m/s 748 mmHg 34%
13:00 +31°C° 0 mm 2 m/s 748 mmHg 31%
14:00 +31°C° 0 mm 2 m/s 748 mmHg 31%
15:00 +31°C° 0 mm 2 m/s 748 mmHg 30%
16:00 +31°C° 0 mm 2 m/s 747 mmHg 30%
17:00 +30°C° 0 mm 2 m/s 747 mmHg 36%
18:00 +29°C° 0 mm 2 m/s 747 mmHg 42%
19:00 +27°C° 0 mm 2 m/s 747 mmHg 48%
20:00 +25°C° 0 mm 2 m/s 747 mmHg 52%
21:00 +24°C° 0 mm 2 m/s 747 mmHg 57%
22:00 +21°C° 0 mm 2 m/s 748 mmHg 62%
23:00 +20°C° 0 mm 2 m/s 747 mmHg 62%

19 Mai, Mercredi

Heure Température Précipitation Vent Pression Humidité
00:00 +20°C° 0 mm 2 m/s 747 mmHg 62%
01:00 +20°C° 0 mm 2 m/s 747 mmHg 62%
02:00 +20°C° 0 mm 1 m/s 747 mmHg 63%
03:00 +20°C° 0 mm 1 m/s 747 mmHg 63%
04:00 +20°C° 0 mm 1 m/s 747 mmHg 64%
05:00 +20°C° 0 mm 1 m/s 747 mmHg 63%
06:00 +21°C° 0 mm 1 m/s 747 mmHg 62%
07:00 +22°C° 0 mm 1 m/s 748 mmHg 61%
08:00 +23°C° 0 mm 2 m/s 748 mmHg 58%
09:00 +25°C° 0 mm 4 m/s 748 mmHg 56%
10:00 +26°C° 0 mm 5 m/s 747 mmHg 53%
11:00 +27°C° 0 mm 5 m/s 747 mmHg 50%
12:00 +28°C° 0 mm 5 m/s 747 mmHg 47%
13:00 +28°C° 0 mm 5 m/s 747 mmHg 44%
14:00 +29°C° 0 mm 5 m/s 747 mmHg 43%
15:00 +29°C° 0 mm 5 m/s 747 mmHg 42%
16:00 +29°C° 0 mm 5 m/s 747 mmHg 41%
17:00 +27°C° 0.2 mm 6 m/s 747 mmHg 49%
18:00 +24°C° 0.2 mm 7 m/s 746 mmHg 58%
19:00 +22°C° 0.2 mm 7 m/s 746 mmHg 67%
20:00 +21°C° 0.4 mm 5 m/s 746 mmHg 69%
21:00 +19°C° 0.4 mm 4 m/s 747 mmHg 72%
22:00 +18°C° 0.4 mm 2 m/s 747 mmHg 75%
23:00 +18°C° 0 mm 2 m/s 747 mmHg 78%

20 Mai, Jeudi

Heure Température Précipitation Vent Pression Humidité
00:00 +17°C° 0 mm 2 m/s 746 mmHg 82%
01:00 +17°C° 0 mm 2 m/s 746 mmHg 86%
02:00 +17°C° 0 mm 2 m/s 746 mmHg 88%
03:00 +17°C° 0 mm 2 m/s 746 mmHg 89%
04:00 +16°C° 0 mm 2 m/s 746 mmHg 91%
05:00 +17°C° 0 mm 2 m/s 747 mmHg 88%
06:00 +18°C° 0 mm 3 m/s 747 mmHg 84%
07:00 +19°C° 0 mm 3 m/s 747 mmHg 80%
08:00 +21°C° 0 mm 4 m/s 747 mmHg 74%
09:00 +22°C° 0 mm 5 m/s 747 mmHg 67%
10:00 +24°C° 0 mm 6 m/s 747 mmHg 61%
11:00 +26°C° 0 mm 6 m/s 747 mmHg 56%
12:00 +27°C° 0 mm 7 m/s 747 mmHg 52%
13:00 +29°C° 0 mm 7 m/s 747 mmHg 47%
14:00 +29°C° 0 mm 7 m/s 747 mmHg 47%
15:00 +29°C° 0 mm 7 m/s 747 mmHg 47%
16:00 +30°C° 0 mm 7 m/s 747 mmHg 47%
17:00 +28°C° 0 mm 7 m/s 746 mmHg 51%
18:00 +27°C° 0 mm 7 m/s 746 mmHg 55%
19:00 +26°C° 0 mm 7 m/s 745 mmHg 58%
20:00 +26°C° 0 mm 6 m/s 746 mmHg 58%
21:00 +25°C° 0 mm 5 m/s 746 mmHg 59%
22:00 +23°C° 0 mm 4 m/s 746 mmHg 59%
23:00 +22°C° 0.1 mm 4 m/s 746 mmHg 63%
Voir plus

Nous avons besoin de votre consentement

Meteoprog et ses fournisseurs de services peuvent stocker et accéder à des données personnelles telles que des cookies, des identifiants d'appareils ou d'autres technologies similaires sur votre appareil et traiter ces données pour personnaliser le contenu et les publicités, ainsi que pour fournir des fonctionnalités de médias sociaux et analyser le trafic.

  • Stocker et/ou accéder à des informations sur votre appareil

    Des cookies, des identifiants d'appareils ou d'autres informations peuvent être stockés ou accessibles sur votre appareil aux fins indiquées ci-dessus.

  • Annonces et contenus personnalisés, mesure des annonces et des contenus, connaissance de l'audience et développement de produits

    Les annonces et le contenu peuvent être personnalisés en fonction d'un profil. D'autres données peuvent être ajoutées pour mieux personnaliser les annonces et le contenu. Les performances des publicités et du contenu peuvent être mesurées. Il est possible d'obtenir des informations sur le public qui a vu les publicités et le contenu. Ces données peuvent être utilisées pour développer ou améliorer l'expérience de l'utilisateur, les systèmes et les logiciels.

En cliquant sur "J'accepte", vous autorisez l'utilisation de cookies, des identifiants d'appareils, des balises web ou d'autres technologies similaires. Vos paramètres peuvent être modifiés dans le navigateur de votre appareil.

Dans certains cas, des intérêts légitimes peuvent être invoqués plutôt qu'un consentement. Vous pouvez en savoir plus à ce sujet dans notre Politique de confidentialité et de cookies.